DW6619 Manassas VA US current weather conditions

sailwx.info

Wind from 246 at 0 knots gusting 10

Air temperature 21.7° C
Dewpoint 17.0° C

Last reported at 2020-Sep-24 17:01 UTC.
Time now 2020-Sep-24 18:00 UTC

Location: N 38°45' W 077°28'.
View on Google Maps.

See reports from other nearby stations

  
Tides and Currents Weather Stations Pressure Air Temp Water Temp Dewpoint Dewpoint Depression Visibility Wind Speed Wind Dir Waves Ship Positions
date/time (UTC)wind fromknots sea level pressurealtimeterstation pressurevisibilityair tempwater tempwave heightnotes
2020-Sep-24 17:01 246 0 gusting 10 21.7
2020-Sep-24 16:55 246 4 gusting 10 21.7
2020-Sep-24 16:50 232 1 gusting 2 21.7
2020-Sep-24 16:45 344 0 gusting 1 21.1
2020-Sep-24 16:40 277 21.1
2020-Sep-24 16:35 313 20.6
2020-Sep-24 16:25 315 20.0
2020-Sep-24 16:20 315 20.0
2020-Sep-24 16:15 309 20.0
2020-Sep-24 16:10 309 20.0
2020-Sep-24 16:05 309 20.0
2020-Sep-24 15:55 309 20.0
2020-Sep-24 15:50 028 20.0
2020-Sep-24 15:45 061 20.0
2020-Sep-24 15:40 360 20.0
2020-Sep-24 15:35 311 0 gusting 1 20.0
2020-Sep-24 15:25 042 0 gusting 2 20.0
2020-Sep-24 15:20 015 0 gusting 2 20.0
2020-Sep-24 15:15 005 0 gusting 2 20.0
2020-Sep-24 15:10 348 0 gusting 2 20.0
2020-Sep-24 15:05 030 0 gusting 2 19.4
2020-Sep-24 15:01 300 19.4
2020-Sep-24 14:55 252 19.4
2020-Sep-24 14:45 252 18.9
2020-Sep-24 14:40 252 18.3
2020-Sep-24 14:35 252 17.8
2020-Sep-24 14:30 252 17.8
2020-Sep-24 14:25 252 17.2
2020-Sep-24 14:20 252 17.2
2020-Sep-24 14:15 252 17.2
2020-Sep-24 14:10 252 16.7
2020-Sep-24 14:05 252 16.7
2020-Sep-24 14:00 252 16.7
2020-Sep-24 13:55 252 16.1
2020-Sep-24 13:50 252 16.1
2020-Sep-24 13:45 252 16.1
2020-Sep-24 13:40 252 15.6
2020-Sep-24 13:35 252 15.6
2020-Sep-24 13:30 252 15.6
2020-Sep-24 13:25 252 15.6
2020-Sep-24 13:05 252 15.0
2020-Sep-24 13:00 252 15.0
2020-Sep-24 12:55 252 14.4
2020-Sep-24 12:50 252 14.4
2020-Sep-24 12:45 252 14.4
2020-Sep-24 12:40 252 14.4
2020-Sep-24 12:35 252 14.4
2020-Sep-24 12:30 252 13.9
2020-Sep-24 12:25 252 13.9
2020-Sep-24 12:20 252 13.9
2020-Sep-24 12:15 252 13.9
2020-Sep-24 12:10 252 13.9
2020-Sep-24 12:05 252 13.9
2020-Sep-24 11:55 252 13.9
2020-Sep-24 11:50 252 13.9
2020-Sep-24 11:45 230 0 gusting 2 13.9
2020-Sep-24 11:40 234 13.9
2020-Sep-24 11:35 234 13.3
2020-Sep-24 11:30 234 13.3
2020-Sep-24 11:25 234 13.3
2020-Sep-24 11:20 234 13.3
2020-Sep-24 11:15 234 13.3
2020-Sep-24 11:10 234 13.3
2020-Sep-24 11:00 234 13.3
2020-Sep-24 10:55 234 13.3
2020-Sep-24 10:50 234 13.3
2020-Sep-24 10:45 234 13.3
2020-Sep-24 10:40 234 13.3
2020-Sep-24 10:35 234 13.3
2020-Sep-24 10:30 234 13.3
2020-Sep-24 10:25 234 13.3
2020-Sep-24 10:20 234 13.3
2020-Sep-24 10:15 234 13.3
2020-Sep-24 10:10 234 13.3
2020-Sep-24 10:05 234 13.3
2020-Sep-24 10:00 234 13.3
2020-Sep-24 09:55 234 13.3
2020-Sep-24 09:50 234 13.3
2020-Sep-24 09:45 234 13.3
2020-Sep-24 09:40 234 13.3
2020-Sep-24 09:35 234 13.3
2020-Sep-24 09:30 234 13.3
2020-Sep-24 09:25 234 13.3
2020-Sep-24 09:20 234 13.3
2020-Sep-24 09:10 234 13.3
2020-Sep-24 09:05 234 13.3
2020-Sep-24 09:00 234 13.3
2020-Sep-24 08:55 234 13.3
2020-Sep-24 08:50 234 13.3
2020-Sep-24 08:45 234 13.3
2020-Sep-24 08:40 234 13.3
2020-Sep-24 08:35 234 13.3
2020-Sep-24 08:25 234 13.3
2020-Sep-24 08:20 234 13.3
2020-Sep-24 08:15 234 13.3
2020-Sep-24 08:10 234 13.3
2020-Sep-24 08:05 234 13.3
2020-Sep-24 07:55 234 13.3
2020-Sep-24 07:50 234 13.3
2020-Sep-24 07:45 234 13.3
2020-Sep-24 07:40 234 13.3
2020-Sep-24 07:30 234 13.3
2020-Sep-24 07:25 234 13.3
2020-Sep-24 07:20 234 13.3
2020-Sep-24 07:15 234 13.3
2020-Sep-24 07:10 234 13.3
2020-Sep-24 07:05 234 13.3
2020-Sep-24 07:00 234 13.3
2020-Sep-24 06:55 234 13.3
2020-Sep-24 06:50 234 13.3
2020-Sep-24 06:40 234 13.3
2020-Sep-24 06:35 234 13.9
2020-Sep-24 06:30 234 13.9
2020-Sep-24 06:25 234 13.9
2020-Sep-24 06:20 234 13.9
2020-Sep-24 06:10 234 13.9
2020-Sep-24 06:05 234 13.9
2020-Sep-24 06:00 234 13.9
2020-Sep-24 05:55 234 13.9
2020-Sep-24 05:50 234 13.9
2020-Sep-24 05:45 234 14.4
2020-Sep-24 05:40 234 14.4
2020-Sep-24 05:35 234 14.4
2020-Sep-24 05:25 234 0 gusting 2 14.4
2020-Sep-24 05:15 221 0 gusting 1 14.4
2020-Sep-24 05:10 256 14.4
2020-Sep-24 05:05 256 15.0
2020-Sep-24 04:55 256 15.0
2020-Sep-24 04:50 256 0 gusting 2 15.0
2020-Sep-24 04:45 256 0 gusting 2 15.0
2020-Sep-24 04:40 256 1 gusting 3 15.0
2020-Sep-24 04:35 251 1 gusting 3 15.0
2020-Sep-24 04:30 233 0 gusting 1 15.0
2020-Sep-24 04:25 233 0 gusting 1 15.0
2020-Sep-24 04:20 233 0 gusting 1 15.0
2020-Sep-24 04:15 233 15.6
2020-Sep-24 04:10 233 15.6
2020-Sep-24 04:05 233 0 gusting 1 15.6
2020-Sep-24 04:00 233 15.6
2020-Sep-24 03:55 233 0 gusting 1 15.6
2020-Sep-24 03:50 231 0 gusting 1 15.6
2020-Sep-24 03:40 215 1 gusting 4 15.6
2020-Sep-24 03:35 224 1 gusting 3 16.1
2020-Sep-24 03:30 229 1 gusting 2 16.1
2020-Sep-24 03:25 250 0 gusting 2 16.1
2020-Sep-24 03:20 238 0 gusting 2 16.1
2020-Sep-24 03:15 227 1 gusting 2 16.1
2020-Sep-24 03:10 230 0 gusting 3 16.1
2020-Sep-24 03:05 230 0 gusting 3 16.7
2020-Sep-24 03:00 246 1 gusting 2 16.7
2020-Sep-24 02:55 246 0 gusting 3 16.7
2020-Sep-24 02:50 246 1 gusting 3 16.7
2020-Sep-24 02:45 246 0 gusting 2 16.7
2020-Sep-24 02:40 239 0 gusting 2 16.7
2020-Sep-24 02:35 242 0 gusting 6 17.2
2020-Sep-24 02:30 247 1 gusting 6 17.2
2020-Sep-24 02:25 246 1 gusting 3 17.2
2020-Sep-24 02:20 223 1 gusting 3 17.2
2020-Sep-24 02:15 256 1 gusting 5 17.2
2020-Sep-24 02:10 242 1 gusting 5 17.2
2020-Sep-24 02:05 244 1 gusting 3 17.2
2020-Sep-24 01:55 226 1 gusting 4 17.2
2020-Sep-24 01:50 240 1 gusting 6 17.2
2020-Sep-24 01:45 236 2 gusting 4 17.8
2020-Sep-24 01:40 234 2 gusting 3 17.8
2020-Sep-24 01:35 216 1 gusting 3 17.8
2020-Sep-24 01:30 244 1 gusting 3 17.8
2020-Sep-24 01:25 241 1 gusting 3 17.8
2020-Sep-24 01:20 228 1 gusting 3 18.3
2020-Sep-24 01:15 230 1 gusting 4 18.3
2020-Sep-24 01:10 198 1 gusting 4 18.3
2020-Sep-24 01:05 248 1 gusting 3 18.3
2020-Sep-24 00:55 209 0 gusting 2 18.9
2020-Sep-24 00:45 213 1 gusting 3 19.4
2020-Sep-24 00:40 213 1 gusting 2 19.4
2020-Sep-24 00:35 246 19.4
2020-Sep-24 00:30 242 2 gusting 6 20.0
2020-Sep-24 00:25 217 2 gusting 4 20.0
2020-Sep-24 00:20 218 2 gusting 4 20.0
2020-Sep-24 00:15 227 2 gusting 6 20.0
2020-Sep-24 00:10 222 2 gusting 6 20.6
2020-Sep-24 00:00 246 2 gusting 6 20.6
2020-Sep-23 23:55 234 2 gusting 6 20.6
2020-Sep-23 23:45 195 1 gusting 6 21.1
2020-Sep-23 23:40 177 2 gusting 6 21.1
2020-Sep-23 23:35 213 2 gusting 7 21.1
2020-Sep-23 23:25 239 1 gusting 6 21.7
2020-Sep-23 23:20 242 1 gusting 4 21.7
2020-Sep-23 23:15 228 1 gusting 3 21.7
2020-Sep-23 23:10 252 0 gusting 3 22.2
2020-Sep-23 23:05 229 1 gusting 3 22.2
2020-Sep-23 23:00 237 0 gusting 3 22.2
2020-Sep-23 22:55 267 1 gusting 3 22.8
2020-Sep-23 22:50 248 1 gusting 4 22.8
2020-Sep-23 22:40 232 1 gusting 4 23.3
2020-Sep-23 22:35 240 2 gusting 4 23.3
2020-Sep-23 22:30 188 1 gusting 3 23.9
2020-Sep-23 22:25 228 1 gusting 3 23.9
2020-Sep-23 22:20 264 1 gusting 3 23.9
2020-Sep-23 22:15 242 1 gusting 3 24.4
2020-Sep-23 22:10 275 1 gusting 4 24.4
2020-Sep-23 22:05 269 1 gusting 4 24.4
2020-Sep-23 22:00 246 0 gusting 4 24.4
2020-Sep-23 21:55 234 1 gusting 4 25.0
2020-Sep-23 21:50 244 1 gusting 4 25.0
2020-Sep-23 21:40 244 1 gusting 6 25.0
2020-Sep-23 21:35 239 1 gusting 7 25.6
2020-Sep-23 21:30 260 2 gusting 7 25.6
2020-Sep-23 21:25 232 2 gusting 6 25.6
2020-Sep-23 21:20 235 3 gusting 8 26.1
2020-Sep-23 21:15 230 3 gusting 8 26.1
2020-Sep-23 21:10 271 3 gusting 7 26.1
2020-Sep-23 21:05 239 0 gusting 8 26.1
2020-Sep-23 21:00 243 3 gusting 8 26.1
2020-Sep-23 20:55 238 3 gusting 9 26.1
2020-Sep-23 20:50 248 3 gusting 9 26.7
2020-Sep-23 20:45 262 3 gusting 7 26.7
2020-Sep-23 20:40 233 2 gusting 8 27.2
2020-Sep-23 20:35 271 1 gusting 8 27.2
2020-Sep-23 20:30 225 0 gusting 7 27.2
2020-Sep-23 20:25 233 2 gusting 7 27.8
2020-Sep-23 20:20 252 1 gusting 6 27.8
2020-Sep-23 20:15 261 3 gusting 6 27.8
2020-Sep-23 20:10 240 2 gusting 6 27.8
2020-Sep-23 20:05 266 0 gusting 7 27.8
2020-Sep-23 20:00 318 1 gusting 7 27.8
2020-Sep-23 19:55 284 2 gusting 7 27.8
2020-Sep-23 19:45 335 1 gusting 8 27.8
2020-Sep-23 19:40 319 2 gusting 6 27.8
2020-Sep-23 19:35 242 2 gusting 6 27.8
2020-Sep-23 19:30 258 2 gusting 4 27.8
2020-Sep-23 19:25 340 1 gusting 6 27.8
2020-Sep-23 19:15 266 2 gusting 7 27.8
2020-Sep-23 19:10 246 2 gusting 7 27.8
2020-Sep-23 19:05 241 1 gusting 6 27.2
2020-Sep-23 19:00 228 3 gusting 10 27.8
2020-Sep-23 18:55 235 2 gusting 10 27.8
2020-Sep-23 18:50 220 2 gusting 6 27.8
2020-Sep-23 18:40 246 2 gusting 6 27.2
2020-Sep-23 18:35 221 1 gusting 5 27.8
2020-Sep-23 18:30 227 1 gusting 5 27.2
2020-Sep-23 18:25 307 0 gusting 8 27.2
2020-Sep-23 18:15 254 1 gusting 5 27.2
2020-Sep-23 18:10 244 1 gusting 3 27.2
2020-Sep-23 18:05 261 0 gusting 3 27.2
2020-Sep-23 18:00 236 0 gusting 4 27.2
2020-Sep-23 17:55 319 1 gusting 4 27.2
2020-Sep-23 17:50 243 2 gusting 4 26.7
2020-Sep-23 17:40 271 1 gusting 3 26.7
2020-Sep-23 17:35 319 1 gusting 3 26.7
2020-Sep-23 17:30 343 1 gusting 3 27.2
2020-Sep-23 17:25 327 1 gusting 3 26.7
2020-Sep-23 17:20 262 0 gusting 3 26.7
2020-Sep-23 17:15 236 1 gusting 5 26.7
2020-Sep-23 17:10 232 2 gusting 5 26.1
2020-Sep-23 17:05 320 1 gusting 4 26.1
2020-Sep-23 16:55 327 1 gusting 4 26.1
2020-Sep-23 16:50 331 1 gusting 6 25.6
2020-Sep-23 16:45 041 1 gusting 6 26.1
2020-Sep-23 16:40 043 0 gusting 3 25.6
2020-Sep-23 16:35 250 1 gusting 3 25.6
2020-Sep-23 16:30 315 0 gusting 3 25.0
2020-Sep-23 16:25 031 0 gusting 4 25.0
2020-Sep-23 16:15 323 3 gusting 9 24.4
2020-Sep-23 16:10 320 0 gusting 6 24.4
2020-Sep-23 16:05 333 1 gusting 6 24.4
2020-Sep-23 16:00 313 2 gusting 6 24.4
2020-Sep-23 15:55 347 1 gusting 4 24.4
2020-Sep-23 15:50 014 1 gusting 8 24.4
2020-Sep-23 15:45 026 1 gusting 8 23.9
2020-Sep-23 15:40 040 1 gusting 5 23.9
2020-Sep-23 15:35 311 1 gusting 5 23.3
2020-Sep-23 15:30 346 1 gusting 2 23.3
2020-Sep-23 15:25 328 0 gusting 3 22.8
2020-Sep-23 15:20 322 1 gusting 4 22.2
2020-Sep-23 15:15 271 0 gusting 6 22.2
2020-Sep-23 15:10 306 1 gusting 4 21.7
2020-Sep-23 15:05 340 0 gusting 6 21.7
2020-Sep-23 15:00 314 2 gusting 5 21.1
2020-Sep-23 14:55 264 0 gusting 2 20.6
2020-Sep-23 14:50 005 20.0
2020-Sep-23 14:45 280 2 gusting 3 20.0
2020-Sep-23 14:40 252 0 gusting 3 19.4
2020-Sep-23 14:35 252 0 gusting 4 18.9
2020-Sep-23 14:30 245 0 gusting 4 18.9
2020-Sep-23 14:25 005 1 gusting 4 18.3
2020-Sep-23 14:20 310 1 gusting 4 17.8
2020-Sep-23 14:10 252 1 gusting 3 17.2
2020-Sep-23 14:05 304 0 gusting 3 16.7
2020-Sep-23 14:00 277 1 gusting 3 16.1
2020-Sep-23 13:50 253 0 gusting 3 15.6
2020-Sep-23 13:45 320 15.0
2020-Sep-23 13:40 296 14.4
2020-Sep-23 13:35 293 0 gusting 1 14.4
2020-Sep-23 13:30 269 13.9
2020-Sep-23 13:25 252 13.3
2020-Sep-23 13:20 277 13.3
2020-Sep-23 13:15 266 12.8
2020-Sep-23 13:10 266 12.8
2020-Sep-23 13:00 230 1 gusting 3 11.7
2020-Sep-23 12:55 247 0 gusting 3 11.7
2020-Sep-23 12:50 239 1 gusting 2 11.1
2020-Sep-23 12:45 257 11.1
2020-Sep-23 12:40 259 10.6
2020-Sep-23 12:35 234 10.6
2020-Sep-23 12:30 234 10.6
2020-Sep-23 12:25 252 10.0
2020-Sep-23 12:20 254 10.0
2020-Sep-23 12:15 245 9.4
2020-Sep-23 12:10 249 9.4
2020-Sep-23 12:05 244 0 gusting 2 9.4
2020-Sep-23 12:00 244 0 gusting 2 8.9
2020-Sep-23 11:55 244 8.9
2020-Sep-23 11:45 244 8.9
2020-Sep-23 11:40 244 8.9
2020-Sep-23 11:35 244 8.9
2020-Sep-23 11:25 244 8.9
2020-Sep-23 11:20 244 8.3
2020-Sep-23 11:15 244 8.3
2020-Sep-23 11:10 244 8.9
2020-Sep-23 11:05 244 8.9
2020-Sep-23 10:55 244 8.9
2020-Sep-23 10:50 244 8.9
2020-Sep-23 10:45 244 8.9
2020-Sep-23 10:40 244 8.9
2020-Sep-23 10:35 244 8.9
2020-Sep-23 10:30 244 8.9
2020-Sep-23 10:25 244 8.9
2020-Sep-23 10:20 244 8.9
2020-Sep-23 10:15 244 8.9
2020-Sep-23 10:10 244 8.9
2020-Sep-23 10:05 244 8.9
2020-Sep-23 10:00 244 8.9
2020-Sep-23 09:55 244 8.9
2020-Sep-23 09:50 244 8.9
2020-Sep-23 09:45 244 8.9
2020-Sep-23 09:40 244 8.9
2020-Sep-23 09:35 244 9.4
2020-Sep-23 09:25 244 9.4
2020-Sep-23 09:20 244 9.4
2020-Sep-23 09:15 244 9.4
2020-Sep-23 09:10 244 9.4
2020-Sep-23 09:05 244 9.4
2020-Sep-23 08:55 244 9.4
2020-Sep-23 08:50 244 9.4
2020-Sep-23 08:45 244 9.4
2020-Sep-23 08:40 244 10.0
2020-Sep-23 08:35 244 10.0
2020-Sep-23 08:30 244 10.0
2020-Sep-23 08:25 244 10.0
2020-Sep-23 08:20 244 10.0
2020-Sep-23 08:15 244 10.0
2020-Sep-23 08:10 244 10.0
2020-Sep-23 08:05 244 10.0
2020-Sep-23 08:00 244 10.0
2020-Sep-23 07:55 244 10.0
2020-Sep-23 07:50 244 10.0
2020-Sep-23 07:45 244 10.6
2020-Sep-23 07:40 244 10.6
2020-Sep-23 07:35 244 10.6
2020-Sep-23 07:30 244 10.0
2020-Sep-23 07:25 244 10.0
2020-Sep-23 07:20 244 10.0
2020-Sep-23 07:15 244 10.0
2020-Sep-23 07:10 244 10.0
2020-Sep-23 07:05 244 10.0
2020-Sep-23 07:00 244 10.0
2020-Sep-23 06:55 244 10.0
2020-Sep-23 06:50 244 10.0
2020-Sep-23 06:45 244 10.0
2020-Sep-23 06:40 244 10.0
2020-Sep-23 06:35 244 10.0
2020-Sep-23 06:30 244 10.0
2020-Sep-23 06:25 244 10.0
2020-Sep-23 06:20 244 10.0
2020-Sep-23 06:15 244 0 gusting 1 10.0
2020-Sep-23 06:10 244 0 gusting 1 10.6
2020-Sep-23 06:05 244 10.6
2020-Sep-23 06:00 244 10.6
2020-Sep-23 05:55 244 10.6
2020-Sep-23 05:50 244 0 gusting 1 10.6
2020-Sep-23 05:45 244 10.6
2020-Sep-23 05:40 244 10.6
2020-Sep-23 05:35 244 10.6
2020-Sep-23 05:30 244 10.6
2020-Sep-23 05:25 244 10.6
2020-Sep-23 05:20 244 10.6
2020-Sep-23 05:15 244 10.6
2020-Sep-23 05:10 244 10.6
2020-Sep-23 05:05 244 10.6
2020-Sep-23 05:00 244 11.1
2020-Sep-23 04:55 244 0 gusting 1 11.1
2020-Sep-23 04:50 244 11.1
2020-Sep-23 04:45 244 11.1
2020-Sep-23 04:40 244 11.1
2020-Sep-23 04:30 244 11.1
2020-Sep-23 04:25 244 11.1
2020-Sep-23 04:20 244 11.1
2020-Sep-23 04:15 244 11.1
2020-Sep-23 04:10 244 0 gusting 1 11.1
2020-Sep-23 04:05 244 11.1
2020-Sep-23 04:00 244 0 gusting 1 11.1
2020-Sep-23 03:55 244 0 gusting 2 11.7
2020-Sep-23 03:50 234 0 gusting 2 11.7
2020-Sep-23 03:45 234 1 gusting 2 11.7
2020-Sep-23 03:40 250 11.7
2020-Sep-23 03:35 250 11.7
2020-Sep-23 03:30 250 11.7
2020-Sep-23 03:25 250 11.7
2020-Sep-23 03:20 250 11.7
2020-Sep-23 03:15 250 11.7
2020-Sep-23 03:10 250 11.7
2020-Sep-23 03:05 250 11.7
2020-Sep-23 03:00 250 12.2
2020-Sep-23 02:55 250 12.2
2020-Sep-23 02:50 250 12.2
2020-Sep-23 02:45 250 12.2
2020-Sep-23 02:40 250 12.2
2020-Sep-23 02:35 250 12.2
2020-Sep-23 02:30 250 12.2
2020-Sep-23 02:25 250 12.8
2020-Sep-23 02:20 250 12.8
2020-Sep-23 02:15 250 12.8
2020-Sep-23 02:10 250 12.8
2020-Sep-23 02:05 250 12.8
2020-Sep-23 02:00 250 12.8
2020-Sep-23 01:55 250 13.3
2020-Sep-23 01:50 250 13.3
2020-Sep-23 01:45 250 13.3
2020-Sep-23 01:40 250 0 gusting 1 13.3
2020-Sep-23 01:35 250 13.3
2020-Sep-23 01:30 250 13.3
2020-Sep-23 01:25 250 13.9
2020-Sep-23 01:20 250 13.9
2020-Sep-23 01:15 250 13.9
2020-Sep-23 01:10 250 13.9
2020-Sep-23 01:05 250 0 gusting 1 13.9
2020-Sep-23 01:00 250 0 gusting 1 13.9
2020-Sep-23 00:55 250 0 gusting 1 13.9
2020-Sep-23 00:50 250 0 gusting 2 14.4
2020-Sep-23 00:45 250 1 gusting 2 14.4
2020-Sep-23 00:40 267 0 gusting 1 14.4
2020-Sep-23 00:30 267 0 gusting 1 14.4
2020-Sep-23 00:25 267 0 gusting 1 14.4
2020-Sep-23 00:20 267 0 gusting 1 15.0
2020-Sep-23 00:10 267 0 gusting 1 15.0
2020-Sep-23 00:05 317 0 gusting 1 15.6
2020-Sep-23 00:00 317 0 gusting 1 15.6
2020-Sep-22 23:55 317 15.6
2020-Sep-22 23:45 317 16.1
2020-Sep-22 23:40 317 16.1
2020-Sep-22 23:35 317 16.7
2020-Sep-22 23:30 317 16.7
2020-Sep-22 23:25 317 17.2
2020-Sep-22 23:15 317 17.8
2020-Sep-22 23:10 317 17.8
2020-Sep-22 23:05 317 17.8
2020-Sep-22 23:00 317 18.3
2020-Sep-22 22:55 317 18.3
2020-Sep-22 22:50 317 18.9
2020-Sep-22 22:45 317 18.9
2020-Sep-22 22:35 317 19.4
2020-Sep-22 22:30 317 0 gusting 2 19.4
2020-Sep-22 22:25 355 19.4
2020-Sep-22 22:20 302 1 gusting 5 20.0
2020-Sep-22 22:15 288 0 gusting 2 20.0
2020-Sep-22 22:10 312 0 gusting 2 20.0
2020-Sep-22 22:05 320 0 gusting 4 20.0
2020-Sep-22 22:00 312 1 gusting 4 20.6
2020-Sep-22 21:55 255 0 gusting 4 20.6
2020-Sep-22 21:50 348 1 gusting 4 20.6
2020-Sep-22 21:45 321 1 gusting 3 20.6
2020-Sep-22 21:40 303 0 gusting 4 20.6
2020-Sep-22 21:35 036 1 gusting 6 21.1
2020-Sep-22 21:30 325 2 gusting 6 21.1
2020-Sep-22 21:25 241 1 gusting 4 21.1
2020-Sep-22 21:20 285 1 gusting 6 21.1
2020-Sep-22 21:15 315 1 gusting 6 21.7
2020-Sep-22 21:10 040 2 gusting 4 21.7
2020-Sep-22 21:05 272 0 gusting 5 21.7
2020-Sep-22 21:00 022 1 gusting 5 21.7
2020-Sep-22 20:55 355 1 gusting 6 21.7
2020-Sep-22 20:50 329 1 gusting 6 21.7
2020-Sep-22 20:40 313 1 gusting 7 21.7
2020-Sep-22 20:35 286 1 gusting 6 21.7
2020-Sep-22 20:30 034 0 gusting 4 22.2
2020-Sep-22 20:25 005 1 gusting 4 22.2
2020-Sep-22 20:20 275 1 gusting 5 22.2
2020-Sep-22 20:15 265 2 gusting 5 22.2
2020-Sep-22 20:10 264 0 gusting 5 22.2
2020-Sep-22 20:05 326 1 gusting 7 22.2
2020-Sep-22 19:55 312 2 gusting 6 22.2
2020-Sep-22 19:50 232 0 gusting 5 22.2
2020-Sep-22 19:45 005 2 gusting 7 22.8
2020-Sep-22 19:40 270 1 gusting 7 22.8
2020-Sep-22 19:35 307 2 gusting 9 22.8
2020-Sep-22 19:30 259 2 gusting 9 22.8
2020-Sep-22 19:25 340 2 gusting 5 22.8
2020-Sep-22 19:20 298 22.8
2020-Sep-22 19:15 323 1 gusting 6 22.2
2020-Sep-22 19:10 245 2 gusting 7 22.2
2020-Sep-22 19:05 305 1 gusting 7 22.2
2020-Sep-22 19:00 286 2 gusting 7 22.8
2020-Sep-22 18:55 309 2 gusting 6 22.8
2020-Sep-22 18:50 224 2 gusting 6 22.2
2020-Sep-22 18:45 207 1 gusting 7 22.2
2020-Sep-22 18:40 251 0 gusting 7 22.2
2020-Sep-22 18:35 277 2 gusting 6 22.2
2020-Sep-22 18:30 152 1 gusting 6 22.2
2020-Sep-22 18:25 255 2 gusting 4 22.2
2020-Sep-22 18:15 313 1 gusting 4 22.2
2020-Sep-22 18:10 087 1 gusting 4 22.2
2020-Sep-22 18:05 238 1 gusting 4 22.2
2020-Sep-22 18:00 340 1 gusting 4 21.7